Flag for Mauritania Weather past 2 weeks in Nouakchott, Mauritania

Now
73 °F

Clear.


Feels Like: 75 °F
Forecast: 66 / 93 °F
Wind: 10 mph from Northeast

Location: Nouakchott Airport

Current Time: Mar 27, 2015 at 12:28:07 AM

Latest Report: Mar 27, 2015 at 12:00 AM


Visibility: 5 mi

Pressure: 29.98 "Hg

Humidity: 20%

Dew point: 30 °F

Location of NouakchottLocation

Historic Weather in Nouakchott — Graph

°F

Nouakchott temperature yesterday

Maximum temperature yesterday: 88 °F (at 3:00 PM)
Minimum temperature yesterday: 57 °F (at 7:00 AM)
Average temperature yesterday: 73 °F

Past Weeks' High & Low Weather Summary

 TemperatureHumidityPressure
High97 °F (Mar 13, 2:00 PM)94% (Mar 17, 6:30 AM)30.04 "Hg (Mar 17, 6:30 AM)
Low57 °F (Mar 21, 7:00 AM)5% (Mar 14, 10:30 AM)29.74 "Hg (Mar 13, 4:30 PM)
Average72 °F44%29.89 "Hg
* Reported Mar 11 11:00 PM — Mar 26 11:00 PM, Nouakchott, Weather by CustomWeather, © 2015

Note: Actual official high and low records may vary slightly from our data, if they occured in-between our weather recording intervals... More about our weather records

Advertising

Nouakchott weather history for previous 24 hours

 ConditionsComfort  
Time TempWeatherWind HumidityBarometerVisibility
11:00 PM
Thu, Mar 26
72 °FClear.7 mph36%30.01 "Hg5 mi
10:30 PM72 °FClear.6 mph47%29.98 "Hg5 mi
10:00 PM70 °FClear.7 mph57%29.98 "Hg5 mi
9:30 PM70 °FClear.7 mph60%29.98 "Hg5 mi
9:00 PM72 °FClear.6 mph57%29.98 "Hg5 mi
8:30 PM72 °FClear.6 mph53%29.95 "Hg5 mi
8:00 PM73 °FClear.9 mph50%29.95 "Hg5 mi
7:30 PM73 °FClear.9 mph50%29.95 "Hg5 mi
7:00 PM77 °FClear.8 mph42%29.92 "Hg5 mi
6:30 PM86 °FClear.10 mph12%29.92 "Hg5 mi
6:00 PM88 °FClear.13 mph10%29.92 "Hg5 mi
5:30 PM88 °FClear.14 mph10%29.92 "Hg5 mi
5:00 PM88 °FClear.13 mph10%29.92 "Hg5 mi
4:30 PM88 °FClear.13 mph10%29.92 "Hg5 mi
4:00 PM88 °FClear.13 mph10%29.92 "Hg5 mi
3:30 PM88 °FClear.15 mph12%29.92 "Hg5 mi
3:00 PM88 °FClear.14 mph12%29.92 "Hg5 mi
2:30 PM86 °FClear.14 mph13%29.95 "Hg5 mi
2:00 PM86 °FClear.16 mph13%29.95 "Hg5 mi
1:30 PM86 °FClear.17 mph13%29.95 "Hg4 mi
1:00 PM84 °FClear.18 mph15%29.98 "Hg4 mi
12:30 PM82 °FClear.18 mph16%29.98 "Hg4 mi
12:00 PM81 °FClear.21 mph18%30.01 "Hg4 mi
11:30 AM81 °FClear.20 mph18%30.01 "Hg4 mi
11:00 AM79 °FClear.21 mph20%30.01 "Hg4 mi
10:30 AM77 °FClear.20 mph21%30.01 "Hg4 mi
10:00 AM73 °FClear.17 mph22%30.01 "Hg4 mi
9:30 AM70 °FClear.15 mph25%30.01 "Hg4 mi
9:00 AM64 °FClear.13 mph28%30.01 "Hg4 mi
8:30 AM63 °FClear.12 mph30%30.01 "Hg4 mi
8:00 AM61 °FClear.9 mph31%29.98 "Hg4 mi
7:30 AM59 °FClear.8 mph34%29.98 "Hg4 mi
7:00 AM57 °FClear.8 mph36%29.98 "Hg4 mi
6:30 AM59 °FClear.8 mph34%29.98 "Hg4 mi
6:00 AM59 °FClear.9 mph34%29.95 "Hg4 mi
5:30 AM61 °FClear.9 mph31%29.95 "Hg4 mi
5:00 AM63 °FClear.12 mph30%29.95 "Hg4 mi
4:30 AM63 °FClear.10 mph30%29.95 "Hg4 mi
4:00 AM64 °FMild.13 mph26%29.95 "HgN/A
3:30 AM64 °FClear.12 mph26%29.95 "Hg4 mi
3:00 AM66 °FClear.12 mph24%29.95 "Hg4 mi
2:30 AM66 °FClear.12 mph24%29.95 "Hg4 mi
2:00 AM68 °FClear.13 mph23%29.95 "Hg4 mi
1:30 AM68 °FClear.13 mph23%29.95 "Hg4 mi
1:00 AM68 °FClear.14 mph24%29.95 "Hg4 mi
12:30 AM70 °FClear.12 mph23%29.98 "Hg4 mi
12:00 AM70 °FClear.13 mph23%29.98 "Hg4 mi
Weather by CustomWeather, © 2015

See weather overviewHow to use our weather pages